Tel Aviv, Israel

10:50 PM IDT on May 25, 2018 (GMT +0300)
Ben Gurion

Weather History for LLBG - July, 2013

Change the Weather History Date:

Monday, July 22, 2013

  Actual Average Record
Temperature  
Mean Temperature 80 °F -  
Max Temperature 87 °F 87 °F 91 °F (1997)
Min Temperature 74 °F 73 °F 69 °F (2008)
Cooling Degree Days 16    
Growing Degree Days 30 (Base 50)    
Moisture  
Dew Point 67 °F    
Average Humidity 63    
Maximum Humidity 78    
Minimum Humidity 46    
Precipitation  
Precipitation 0.00 in - - ()
Sea Level Pressure  
Sea Level Pressure 29.67 in    
Wind  
Wind Speed 7 mph ()    
Max Wind Speed 14 mph    
Max Gust Speed -    
Visibility 6.2 miles    
Events      
Averages and records for this station are not official NWS values.
T = Trace of Precipitation, MM = Missing Value Source: Averaged Metar Reports

Daily Weather History Graph

Daily Weather History Graph

Search for Another Location

Airport or City:

Astronomy

Jul. 22, 2013 Rise Set
Actual Time 5:49 AM IDT 7:44 PM IDT
Civil Twilight 5:21 AM IDT 8:11 PM IDT
Nautical Twilight 4:48 AM IDT 8:44 PM IDT
Astronomical Twilight 4:13 AM IDT 9:19 PM IDT
Moon 7:19 PM IDT (7/22) 5:18 AM IDT (7/22)
Length of Visible Light 14h 49m
Length of Day
13h 54m
Full, 100% of the Moon is Illuminated
Jul 22
Full
Jul 22
Full
Jul 29
Last Quarter
Aug 7
New
Aug 14
First Quarter

Hourly Weather History & Observations

Time (IDT) Temp. Heat Index Dew Point Humidity Pressure Visibility Wind Dir Wind Speed Gust Speed Precip Events Conditions
12:20 AM 78.8 °F - 68.0 °F 69% 29.71 in 6.2 mi South 5.8 mph - N/A   Scattered Clouds
12:50 AM 78.8 °F - 68.0 °F 69% 29.71 in 6.2 mi South 5.8 mph - N/A   Scattered Clouds
1:20 AM 77.0 °F - 68.0 °F 74% 29.71 in 6.2 mi South 5.8 mph - N/A   Scattered Clouds
1:50 AM 77.0 °F - 69.8 °F 78% 29.68 in 6.2 mi South 6.9 mph - N/A   Partly Cloudy
2:20 AM 75.2 °F - 66.2 °F 73% 29.68 in 6.2 mi South 5.8 mph - N/A   Partly Cloudy
2:50 AM 75.2 °F - 68.0 °F 78% 29.68 in 6.2 mi South 5.8 mph - N/A   Scattered Clouds
3:00 AM 76 °F - 67 °F 67% 29.69 in 6 mi South 5.8 mph - -   Partly Cloudy
3:20 AM 75.2 °F - 68.0 °F 78% 29.68 in 6.2 mi South 5.8 mph - N/A   Scattered Clouds
3:50 AM 75.2 °F - 66.2 °F 73% 29.68 in 6.2 mi South 5.8 mph - N/A   Partly Cloudy
4:20 AM 75.2 °F - 66.2 °F 73% 29.68 in 6.2 mi South 5.8 mph - N/A   Partly Cloudy
4:50 AM 75.2 °F - 66.2 °F 73% 29.68 in 6.2 mi South 6.9 mph - N/A   Partly Cloudy
5:20 AM 75.2 °F - 66.2 °F 73% 29.68 in 6.2 mi South 5.8 mph - N/A   Partly Cloudy
5:50 AM 75.2 °F - 66.2 °F 73% 29.68 in 6.2 mi South 5.8 mph - N/A   Partly Cloudy
6:20 AM 75.2 °F - 66.2 °F 73% 29.68 in 6.2 mi South 6.9 mph - N/A   Partly Cloudy
6:50 AM 75.2 °F - 68.0 °F 78% 29.68 in 6.2 mi South 6.9 mph - N/A   Partly Cloudy
7:20 AM 77.0 °F - 68.0 °F 74% 29.68 in - South 6.9 mph - N/A   Clear
7:50 AM 78.8 °F - 68.0 °F 69% 29.68 in 6.2 mi South 9.2 mph - N/A   Partly Cloudy
8:20 AM 78.8 °F - 68.0 °F 69% 29.68 in 6.2 mi SSW 8.1 mph - N/A   Scattered Clouds
8:50 AM 80.6 °F 83.2 °F 68.0 °F 65% 29.68 in 6.2 mi SW 8.1 mph - N/A   Scattered Clouds
9:00 AM 80 °F - 68 °F 58% 29.68 in 6 mi SW 8.1 mph - -   Partly Cloudy
9:20 AM 80.6 °F 83.2 °F 68.0 °F 65% 29.68 in 6.2 mi SW 5.8 mph - N/A   Scattered Clouds
9:50 AM 82.4 °F 84.6 °F 66.2 °F 58% 29.68 in 6.2 mi SW 8.1 mph - N/A   Scattered Clouds
10:20 AM 82.4 °F 84.6 °F 66.2 °F 58% 29.68 in 6.2 mi SW 9.2 mph - N/A   Scattered Clouds
10:50 AM 84.2 °F 86.6 °F 66.2 °F 55% 29.68 in 6.2 mi WSW 10.4 mph - N/A   Scattered Clouds
11:20 AM 84.2 °F 86.6 °F 66.2 °F 55% 29.68 in 6.2 mi West 11.5 mph - N/A   Scattered Clouds
11:50 AM 86.0 °F 89.4 °F 68.0 °F 55% 29.65 in 6.2 mi WSW 9.2 mph - N/A   Scattered Clouds
12:20 PM 84.2 °F 85.6 °F 64.4 °F 51% 29.65 in 6.2 mi West 9.2 mph - N/A   Scattered Clouds
12:50 PM 86.0 °F 88.2 °F 66.2 °F 51% 29.65 in 6.2 mi West 9.2 mph - N/A   Partly Cloudy
1:20 PM 86.0 °F 88.2 °F 66.2 °F 51% 29.65 in 6.2 mi West 12.7 mph - N/A   Partly Cloudy
1:50 PM 86.0 °F 88.2 °F 66.2 °F 51% 29.65 in 6.2 mi West 11.5 mph - N/A   Partly Cloudy
2:20 PM 86.0 °F 89.4 °F 68.0 °F 55% 29.65 in 6.2 mi WNW 13.8 mph - N/A   Partly Cloudy
2:50 PM 86.0 °F 89.4 °F 68.0 °F 55% 29.65 in 6.2 mi West 12.7 mph - N/A   Partly Cloudy
3:00 PM 85 °F - 67 °F 46% 29.67 in 6 mi West 12.7 mph - -   Scattered Clouds
3:20 PM 84.2 °F 87.3 °F 68.0 °F 58% 29.65 in 6.2 mi WNW 12.7 mph - N/A   Partly Cloudy
3:50 PM 84.2 °F 86.6 °F 66.2 °F 55% 29.65 in 6.2 mi West 10.4 mph - N/A   Partly Cloudy
4:20 PM 84.2 °F 86.6 °F 66.2 °F 55% 29.65 in 6.2 mi WNW 10.4 mph - N/A   Partly Cloudy
4:50 PM 84.2 °F 87.3 °F 68.0 °F 58% 29.65 in 6.2 mi WNW 10.4 mph - N/A   Partly Cloudy
5:20 PM 84.2 °F 87.3 °F 68.0 °F 58% 29.62 in 6.2 mi WNW 10.4 mph - N/A   Partly Cloudy
5:50 PM 84.2 °F 86.6 °F 66.2 °F 55% 29.62 in 6.2 mi WNW 11.5 mph - N/A   Partly Cloudy
6:20 PM 82.4 °F 84.6 °F 66.2 °F 58% 29.62 in 6.2 mi WNW 10.4 mph - N/A   Partly Cloudy
6:50 PM 82.4 °F 84.6 °F 66.2 °F 58% 29.65 in - WNW 9.2 mph - N/A   Clear
7:20 PM 82.4 °F 83.4 °F 62.6 °F 51% 29.65 in - West 6.9 mph - N/A   Clear
7:50 PM 80.6 °F 82.7 °F 66.2 °F 61% 29.65 in - WNW 5.8 mph - N/A   Clear
8:20 PM 80.6 °F 82.3 °F 64.4 °F 58% 29.65 in - West 4.6 mph - N/A   Clear
8:50 PM 80.6 °F 82.7 °F 66.2 °F 61% 29.65 in - Variable 2.3 mph - N/A   Clear
9:00 PM 80 °F - 67 °F 55% 29.66 in 6 mi SSW 4.6 mph - -  
9:20 PM 78.8 °F - 68.0 °F 69% 29.65 in - SSW 4.6 mph - N/A   Clear
9:50 PM 78.8 °F - 68.0 °F 69% 29.65 in - SSW 4.6 mph - N/A   Clear
10:20 PM 78.8 °F - 68.0 °F 69% 29.65 in - SSW 4.6 mph - N/A   Clear
10:50 PM 78.8 °F - 68.0 °F 69% 29.65 in - SSW 4.6 mph - N/A   Clear
11:20 PM 78.8 °F - 68.0 °F 69% 29.65 in - Variable 3.5 mph - N/A   Clear
11:50 PM 77.0 °F - 66.2 °F 69% 29.65 in - South 4.6 mph - N/A   Clear